This demonstration page uses our WeatherBlox Daily Observations layout. Learn more.

Left ArrowRight Arrow

39.51506, -84.39828

Hourly Observations for March 1, 2021

Temp ( °F °C ) Dew Point ( °F °C ) Humidity (%) Winds ( mph kmh ) Pressure ( in mb ) Visibility ( mi km ) Precip ( " mm )
12:15 am 00:15 Cloudy with Light Rain 50 10.1 45 7.4 83 83 Calm 29.87 1011 10 16.0934 0 0
12:35 am 00:35 Cloudy with Light Rain 49 9.5 45 7.4 87 87 WNW 7 11 29.88 1012 10 16.0934 0 0
12:55 am 00:55 Cloudy with Light Rain 48 8.9 44 6.4 85 85 WNW 6 9 29.86 1011 10 16.0934 0 0
1:15 am 01:15 Cloudy 47 8.2 43 5.9 86 86 WNW 8 13 29.88 1012 10 16.0934 0 0
1:35 am 01:35 Cloudy with Light Rain 46 7.8 42 5.7 87 87 WNW 9 15 29.91 1013 10 16.0934 0 0
1:55 am 01:55 Cloudy 45 7 41 4.8 86 86 NW 8 13 29.93 1013 10 16.0934 0 0
2:15 am 02:15 Mostly Cloudy 42 5.7 38 3.2 84 84 NNW 14 22 29.94 1014 10 16.0934 0 0
2:35 am 02:35 Cloudy 41 5 36 2.4 83 83 NNW 15 24 29.96 1015 10 16.0934 0 0
2:55 am 02:55 Cloudy 40 4.6 35 1.9 83 83 NNW 12 19 29.96 1015 10 16.0934 0 0
3:15 am 03:15 Clear 40 4.4 35 1.7 83 83 NW 12 19 29.96 1015 10 16.0934 0 0
3:35 am 03:35 Partly Cloudy 40 4.3 35 1.6 83 83 NW 10 17 29.97 1015 10 16.0934 0 0
3:55 am 03:55 Mostly Cloudy 40 4.2 35 1.5 83 83 NW 10 17 29.98 1015 10 16.0934 0 0
4:15 am 04:15 Cloudy 40 4.2 35 1.4 82 82 NW 8 13 29.98 1015 10 16.0934 0 0
4:35 am 04:35 Cloudy 39 4.1 34 1.3 82 82 NW 8 13 29.98 1015 10 16.0934 0 0
4:55 am 04:55 Cloudy 39 4 35 1.4 83 83 NW 8 13 30 1016 10 16.0934 0 0
5:15 am 05:15 Cloudy 39 4 34 1.1 82 82 NW 12 19 30.01 1016 10 16.0934 0 0
5:35 am 05:35 Partly Cloudy 39 3.7 33 0.7 81 81 NW 15 24 30.04 1017 10 16.0934 0 0
5:55 am 05:55 Partly Cloudy 38 3.4 32 0.1 79 79 NNW 12 19 30.04 1017 10 16.0934 0 0
6:15 am 06:15 Cloudy 38 3.3 33 0.4 82 82 WNW 6 9 30.06 1018 10 16.0934 0 0
6:35 am 06:35 Partly Cloudy 37 3 32 -0.1 80 80 NNW 8 13 30.06 1018 10 16.0934 0 0
6:55 am 06:55 Mostly Cloudy 37 2.8 32 0 82 82 WNW 7 11 30.07 1018 10 16.0934 0 0
7:15 am 07:15 Sunny 37 2.7 32 -0.2 81 81 WNW 12 19 30.08 1019 10 16.0934 0 0
7:35 am 07:35 Cloudy 37 2.7 32 0 83 83 WNW 6 9 30.09 1019 10 16.0934 0 0
7:55 am 07:55 Cloudy 37 2.8 32 0 82 82 NW 7 11 30.1 1019 10 16.0934 0 0
8:15 am 08:15 Mostly Cloudy 37 2.8 32 0 82 82 WNW 8 13 30.12 1020 10 16.0934 0 0
8:35 am 08:35 Partly Cloudy 36 2.4 31 -0.6 81 81 NW 13 20 30.13 1020 10 16.0934 0 0
8:55 am 08:55 Sunny 36 2.3 31 -0.7 81 81 NW 10 17 30.14 1021 10 16.0934 0 0
9:15 am 09:15 Sunny 36 2 31 -0.8 82 82 WNW 7 11 30.14 1021 10 16.0934 0 0
9:35 am 09:35 Partly Cloudy 37 2.7 31 -0.8 78 78 W 8 13 30.15 1021 10 16.0934 0 0
9:55 am 09:55 Partly Cloudy 37 2.9 30 -0.9 76 76 W 10 17 30.15 1021 10 16.0934 0 0
10:15 am 10:15 Sunny 38 3.2 30 -1.3 73 73 NW 10 17 30.17 1022 10 16.0934 0 0
10:35 am 10:35 Partly Cloudy 39 3.8 30 -1.1 71 71 WNW 12 19 30.18 1022 10 16.0934 0 0
10:55 am 10:55 Sunny 40 4.7 30 -1.2 66 66 WNW 15 24 30.16 1021 10 16.0934 0 0
11:15 am 11:15 Sunny 40 4.7 28 -2.3 61 61 NW 17 28 30.16 1021 10 16.0934 0 0
11:35 am 11:35 Sunny 40 4.7 26 -3.5 56 56 WNW 16 26 30.16 1021 10 16.0934 0 0
11:55 am 11:55 Sunny 42 5.3 27 -3 55 55 NW 10 17 30.17 1022 10 16.0934 0 0
12:15 pm 12:15 Sunny 43 6 27 -3 53 53 W 14 22 30.17 1022 10 16.0934 0 0
12:35 pm 12:35 Sunny 44 6.4 24 -4.4 46 46 WNW 15 24 30.17 1022 10 16.0934 0 0
12:55 pm 12:55 Sunny 43 6.2 24 -4.2 48 48 W 16 26 30.2 1023 10 16.0934 0 0
1:15 pm 13:15 Sunny 44 6.5 24 -4.5 46 46 WNW 15 24 30.2 1023 10 16.0934 0 0
1:35 pm 13:35 Sunny 44 6.4 23 -4.8 45 45 W 17 28 30.19 1022 10 16.0934 0 0
1:55 pm 13:55 Sunny 44 6.8 24 -4.6 44 44 WNW 18 30 30.2 1023 10 16.0934 0 0
2:15 pm 14:15 Sunny 45 7 22 -5.4 41 41 WNW 17 28 30.2 1023 10 16.0934 0 0
2:35 pm 14:35 Sunny 46 7.7 24 -4.7 41 41 NW 20 31 30.19 1023 10 16.0934 0 0
2:55 pm 14:55 Sunny 46 7.5 22 -5.6 39 39 WNW 15 24 30.2 1023 10 16.0934 0 0
3:15 pm 15:15 Sunny 46 7.5 20 -6.4 37 37 NW 20 31 30.21 1023 10 16.0934 0 0
3:35 pm 15:35 Sunny 45 7.4 21 -6 38 38 W 16 26 30.22 1023 10 16.0934 0 0
3:55 pm 15:55 Sunny 45 7 20 -6.6 38 38 WNW 17 28 30.24 1024 10 16.0934 0 0
4:15 pm 16:15 Sunny 45 7.1 20 -6.6 37 37 WNW 21 33 30.24 1024 10 16.0934 0 0
4:35 pm 16:35 Sunny 44 6.5 20 -6.8 38 38 WNW 18 30 30.23 1024 10 16.0934 0 0
4:55 pm 16:55 Sunny 43 6.1 20 -6.9 39 39 WNW 14 22 30.23 1024 10 16.0934 0 0
5:15 pm 17:15 Mostly Cloudy 44 6.5 21 -6.2 40 40 NW 16 26 30.24 1024 10 16.0934 0 0
5:35 pm 17:35 Cloudy 42 5.5 22 -5.3 46 46 WNW 15 24 30.26 1025 10 16.0934 0 0
5:55 pm 17:55 Mostly Cloudy 40 4.6 21 -6.3 45 45 NW 13 20 30.26 1025 10 16.0934 0 0
6:15 pm 18:15 Sunny 39 3.9 22 -5.7 50 50 NW 14 22 30.27 1025 10 16.0934 0 0
6:35 pm 18:35 Clear 38 3.2 22 -5.4 54 54 NNW 13 20 30.29 1026 10 16.0934 0 0
6:55 pm 18:55 Clear 37 2.5 22 -5.5 56 56 NNW 9 15 30.3 1026 10 16.0934 0 0
7:15 pm 19:15 Clear 36 2.1 22 -5.7 57 57 NNW 9 15 30.3 1026 10 16.0934 0 0
7:35 pm 19:35 Clear 35 1.8 22 -5.6 58 58 NNW 7 11 30.31 1026 10 16.0934 0 0
7:55 pm 19:55 Clear 35 1.4 21 -6 58 58 NW 9 15 30.33 1027 10 16.0934 0 0
8:15 pm 20:15 Clear 34 1.1 21 -5.9 60 60 NNW 10 17 30.33 1027 10 16.0934 0 0
8:35 pm 20:35 Clear 33 0.8 23 -5.2 65 65 N 8 13 30.34 1028 10 16.0934 0 0
8:55 pm 20:55 Clear 32 0.2 23 -4.9 69 69 N 8 13 30.36 1028 10 16.0934 0 0
9:15 pm 21:15 Clear 32 0 22 -5.3 68 68 NNW 5 7 30.37 1028 10 16.0934 0 0
9:35 pm 21:35 Clear 31 -0.3 22 -5.8 67 67 NNW 9 15 30.38 1029 10 16.0934 0 0
9:55 pm 21:55 Clear 31 -0.6 22 -5.8 68 68 NNW 7 11 30.39 1029 10 16.0934 0 0
10:15 pm 22:15 Clear 31 -0.8 22 -5.7 70 70 N 5 7 30.41 1030 10 16.0934 0 0
10:35 pm 22:35 Clear 30 -1.1 21 -5.9 70 70 N 5 7 30.42 1030 10 16.0934 0 0
10:55 pm 22:55 Clear 29 -1.4 20 -6.4 69 69 NNW 7 11 30.42 1030 10 16.0934 0 0
11:15 pm 23:15 Clear 29 -1.4 20 -6.7 68 68 NNW 7 11 30.42 1030 10 16.0934 0 0
11:35 pm 23:35 Clear 29 -1.9 20 -6.9 69 69 NNW 5 7 30.43 1031 10 16.0934 0 0
11:55 pm 23:55 Clear 28 -2.3 19 -7.2 69 69 NW 3 6 30.43 1031 10 16.0934 0 0

Powered by AerisWeather